Weather History for Hickory, NC

Change the Weather History Date:

Sunday, January 25, 2015

  Actual Average Record
Temperature  
Mean Temperature 42 °F -  
Max Temperature 54 °F 50 °F 75 °F (1949)
Min Temperature 30 °F 31 °F 9 °F (1963)
Degree Days  
Heating Degree Days 23    
Moisture  
Dew Point 28 °F    
Average Humidity 55    
Maximum Humidity 82    
Minimum Humidity 35    
Precipitation  
Precipitation 0.00 in - - ()
Sea Level Pressure  
Sea Level Pressure 29.80 in    
Wind  
Wind Speed 3 mph (SW)    
Max Wind Speed 10 mph    
Max Gust Speed -    
Visibility 10 miles    
Events      
Averages and records for this station are not official NWS values.
T = Trace of Precipitation, MM = Missing Value Source: NWS Daily Summary

Daily Weather History Graph

Daily Weather History Graph

Search for Another Location

Airport:

Trip Planner

Search our weather history database for the weather conditions in past years. The results will help you decide how hot, cold, wet, or windy it might be!

Date:

Astronomy

Jan. 25, 2015 Rise Set
Actual Time 7:30 AM EST 5:45 PM EST
Civil Twilight 7:03 AM EST 6:12 PM EST
Nautical Twilight 6:32 AM EST 6:43 PM EST
Astronomical Twilight 6:02 AM EST 7:13 PM EST
Moon 10:48 AM EST (1/25) 11:54 PM EST (1/25)
Length of Visible Light 11h 09m
Length of Day
10h 14m
Waxing Crescent, 34% of the Moon is Illuminated
Jan 25
Waxing Crescent
Jan 26
First Quarter
Feb 3
Full
Feb 11
Last Quarter
Feb 18
New

Hourly Weather History & Observations

Time (EST) Temp. Windchill Dew Point Humidity Pressure Visibility Wind Dir Wind Speed Gust Speed Precip Events Conditions
12:53 AM 36.0 °F - 24.1 °F 62% 29.80 in 10.0 mi Calm Calm - N/A   Clear
1:53 AM 36.0 °F 32.1 °F 25.0 °F 64% 29.83 in 10.0 mi South 4.6 mph - N/A   Clear
2:53 AM 37.9 °F 33.5 °F 26.1 °F 62% 29.83 in 10.0 mi NW 5.8 mph - N/A   Clear
3:53 AM 37.0 °F 33.3 °F 26.1 °F 65% 29.83 in 10.0 mi NW 4.6 mph - N/A   Clear
4:53 AM 37.0 °F - 26.1 °F 65% 29.85 in 10.0 mi Calm Calm - N/A   Clear
5:53 AM 35.1 °F 31.0 °F 27.0 °F 72% 29.86 in 10.0 mi SSW 4.6 mph - N/A   Clear
6:53 AM 30.0 °F - 25.0 °F 82% 29.88 in 10.0 mi Calm Calm - N/A   Clear
7:53 AM 30.9 °F - 26.1 °F 82% 29.88 in 10.0 mi Calm Calm - N/A   Clear
8:53 AM 36.0 °F - 28.0 °F 73% 29.89 in 10.0 mi Calm Calm - N/A   Clear
9:53 AM 41.0 °F 39.0 °F 30.0 °F 65% 29.88 in 10.0 mi NNE 3.5 mph - N/A   Clear
10:53 AM 46.0 °F 44.8 °F 28.9 °F 51% 29.88 in 10.0 mi Variable 3.5 mph - N/A   Clear
11:53 AM 50.0 °F - 28.9 °F 44% 29.85 in 10.0 mi Variable 5.8 mph - N/A   Clear
12:53 PM 51.1 °F - 28.9 °F 43% 29.81 in 10.0 mi Variable 6.9 mph - N/A   Clear
1:53 PM 53.1 °F - 28.0 °F 38% 29.77 in 10.0 mi South 10.4 mph - N/A   Clear
2:53 PM 53.1 °F - 27.0 °F 37% 29.74 in 10.0 mi SW 9.2 mph - N/A   Clear
3:53 PM 54.0 °F - 27.0 °F 35% 29.72 in 10.0 mi Variable 6.9 mph - N/A   Clear
4:53 PM 54.0 °F - 28.0 °F 37% 29.71 in 10.0 mi Variable 5.8 mph - N/A   Clear
5:53 PM 48.9 °F - 30.0 °F 48% 29.73 in 10.0 mi Calm Calm - N/A   Clear
6:53 PM 48.9 °F - 30.0 °F 48% 29.74 in 10.0 mi Variable 3.5 mph - N/A   Clear
7:53 PM 48.0 °F - 28.9 °F 48% 29.75 in 10.0 mi Variable 3.5 mph - N/A   Mostly Cloudy
8:53 PM 48.0 °F - 28.0 °F 46% 29.75 in 10.0 mi South 8.1 mph - N/A   Overcast
9:53 PM 48.0 °F - 28.9 °F 48% 29.74 in 10.0 mi South 6.9 mph - 0.00 in   Overcast
10:53 PM 46.9 °F - 28.9 °F 50% 29.70 in 10.0 mi Calm Calm - N/A   Scattered Clouds
11:53 PM 46.0 °F 43.1 °F 28.9 °F 51% 29.69 in 10.0 mi SSW 5.8 mph - N/A   Clear